Погода в Анапе

Погода в Анапе : погода сейчас, прогноз погоды и архив. Всё, что Вы хотите узнать о погоде в Анапе!

Поиск расширенной информации на нашем сайте:

Другие новости

Новости СМИ2

Главная страница сайта

Новости сайта

02.10.2013

Напоминаем, что на нашем новом сайте вы можете получить высокодетализированные прогнозы погоды по пунктам России, СНГ и мира (включающие важные для авиации метеовеличины, такие как направление и скорость ветра, видимость, явления погоды, количество и форма облачности, нижняя и верхняя граница облачности), а также ознакомиться с разнообразными материалами по авиационной метеорологии и подборкой полезных ссылок на эту тему.

Сайт Метеоцентр.Азия посвящён разработке технологий оптимизации авиаметеорологического обслуживания, включая проектирование и перспективное создание нескольких автоматизированных авиаметеорологических систем:
- система выпуска высокодетальных прогностических карт явлений погоды для нижнего воздушного пространства по России и ближнему зарубежью;
- система верификации прогнозов TAF (выпускаемых синоптиками официальных АМСГ РФ и ближнего зарубежья) и AUTOTAF (выпускаемых сайтом Метеоцентр.Азия) - выявление ошибок, онлайн-сопоставление с фактической погодой METAR, автоматическое внесение коррективов в прогнозы при резком отклонении фактической погоды от прогноза, подсчёт оправдываемости прогнозов по элементам и в целом;
- система обработки, анализа и отображения авиаметеорологической информации для применения провайдерами метеорологической информации.


Погода в Анапе - сегодня

Время (UTC), дата Ветер
(°,м/с) 
Видим.   Явления Облачность Т
(°С)
Тd
(°С)
f(%) Тe
(°С)
Pmin
(гПа)
dP
(гПа)
Po
(мм)
O2
(г/м3)
Тmin Tmax R s Состояние
почвы
06 17.02.17 050 (СВ) 10 км    ясно 
-6.1 -10.3 72 -8  1031.7  0.1  770  319  -8         
09 17.02.17 010 (С) 20000 м    ясно 
-1.5 -10.4 51 -3  1031.4  -0.2  770  313           
12 17.02.17 360 (С) 20000 м    ясно 
+0.2 -9.6 48 -1  1029.8  -1.6  769  311           
15 17.02.17 010 (С) 20000 м    1/0 верхняя 
[Ci fib]
-1.2 -10.6 49 -1  1029.4  -0.5  769  312    +0.5       
18 17.02.17 080 (В) 10 км    ясно 
-3.3 -8.4 68 -3  1029.4  769  314           
21 17.02.17 200 (Ю) 10 км    ясно 
+0.8 -7 56 -2  1029.1  -0.2  769  310           
00 18.02.17 180 (Ю) 8-10{11}  10 км    3/0 средняя 
[Ac trans]
+1.8 -4.3 64 -2  1028.1  -1  768  308           
03 18.02.17 170 (Ю) 10-13{15}  10 км    8/8 600 м 
[Sc]
+3 -2.8 66 -1  1026.7  -1.4  767  306  -3.8         
06 18.02.17 170 (Ю) 9-13{16}  10 км    10/10 600 м 
[Sc]
+3.8 -2.1 65 1026.4  -0.3  767  305           
09 18.02.17 180 (Ю) 11-14{15}  10 км    10/8 600 м верхняя 
[Sc|Cs]
+5.1 -1.1 64 +1  1025.8  -0.6  766  303           
12 18.02.17 180 (Ю) 10-13{14}  20000 м    9/8 600 м верхняя 
[Sc|Ci sp]
+5.6 +0.3 69 +2  1024.7  -1  765  302           
15 18.02.17 180 (Ю) 10-13{13}  10 км    9/9 600 м 
[Sc]
+5.5 +1 73 +2  1024.3  -0.4  765  302    +6.1       
18 18.02.17 170 (Ю) 8-11{13}  10 км    8/8 600 м 
[Sc]
+5.4 +0.9 73 +2  1024.7  0.3  765  302           
21 18.02.17 170 (Ю) 8-10{12}  10 км    6/6 600 м 
[Sc]
+5.8 +1.9 76 +3  1025.3  0.7  766  302           
00 19.02.17 170 (Ю) 8-11{12}  10 км    8/8 600 м 
[Sc]
+6.2 +3 80 +3  1025.7  0.4  766  301           
03 19.02.17 200 (Ю) 5{11}  10 км    4/4 600 м 
[Sc]
+6.2 +2.5 77 +4  1026.5  0.9  767  302  +5.4         
06 19.02.17 200 (Ю) 10 км    9/3 600 м верхняя 
[Sc|Ci sp]
+6.7 +3.5 80 +5  1027.9  1.4  768  301           
09 19.02.17 190 (Ю) 6{10}  10 км    9/6 600 м верхняя 
[Sc|Ci sp]
+7.8 +2.9 71 +6  1028.7  0.8  768  301           
12 19.02.17 200 (Ю) 6{10}  10 км    9/9 600 м 
[Sc]
+7 +3.1 76 +5  1028.3  -0.4  768  301           
15 19.02.17 200 (Ю) 10 км    9/9 600 м 
[Sc]
+6.9 +4.4 84 +5  1028.1  -0.2  768  301    +7.9       
18 19.02.17 180 (Ю) 10 км    8/8 600 м 
[Sc]
+7 +4.5 84 +5  1027.5  -0.5  768  301           
21 19.02.17 190 (Ю) 10 км    8/8 600 м 
[Sc]
+7.2 +3.9 80 +6  1027.2  -0.3  767  301           
00 20.02.17 070 (В) 10 км    3/3 600 м 
[Sc]
+4.4 +1.3 80 +5  1026.3  -0.9  767  304           
03 20.02.17 060 (СВ) 10 км    4/0 средняя 
[Ac As]
+2.1 -1.1 79 +1  1025.2  -1.2  766  306  +2         
06 20.02.17 070 (В) 10 км    8/0 средняя 
[Ac trans]
+4.7 -0.3 70 +6  1024.7  -0.4  765  303  +1.6         
Время (UTC), дата Ветер
(°,м/с) 
Видим.   Явления Облачность Т
(°С)
Тd
(°С)
f(%) Тe
(°С)
Pmin
(гПа)
dP
(гПа)
Po
(мм)
O2
(г/м3)
Тmin Tmax R s Состояние
почвы

Для получения пояснительной информации подведите курсор к названию столбца.

ПОГОДА в Анапе - архив

Всё, что Вы хотите узнать о погоде в Анапе - удобно и подробно!

Выберите нужную дату (начиная с 1 января 2015* года) и нажмите кнопку "Найти".
Будут отображены архивные сводки погоды по пункту Анапа, начиная с указанной даты.


Отображать данные в формате CSV (для использования в таблицах Excel)


Внимание! Наш архив погоды предназначен исключительно для личного некоммерческого использования в познавательных целях. Если Вам необходимы официальные справки о состоянии погоды (для производственных, юридических, коммерческих и т.п. целей), обращайтесь в органы Росгидромета.

*Примечание: данная дата относится к архиву по метеостанциям СССР (Россия, СНГ, Балтия).
Архив по метеостанциям Зарубежной Европы и Азии (кроме Китая) хранится 10 дней, по другим регионам земного шара (Китай, Африка, Америка, Австралия, Океания) - 1 день.

Анапа - район местоположения метеостанции


Название, широта, долгота, высота метеостанции:
Анапа (обсерватория) 44.97°ш. 37.30°д. 23 м над ур. моря [Российская Федерация]

Дополнительная информация

В oтличие oт бoльшинства пoгoдных сайтoв мы публикуем пoдрoбную метеoинфoрмацию в детальнoм прoфессиoнальнoм фoрмате.

Характеристики температуры и влажнoсти вoздуха измеряются на высoте 2 м в тени вдали oт зданий и деревьев.
Скoрoсть ветра измеряется на высoте 10 м (на урoвне рoста челoвека скoрoсть ветра ниже в 1.5-2 раза). Если метеoстанция нахoдится в гoрoде или в лесу, тo скoрoсть ветра занижена на 2-4 м/с пo сравнению с oткрытым местoм. Скoрoсть ветра над акватoриями крупных рек и oзёр, а также на вершинах хoлмoв на 2-5 м/с выше, чем в oбычных услoвиях.
Атмoсфернoе давление в разных тoчках местнoсти мoжет значительнo oтличаться oт давления на метеoстанции, в зависимoсти oт услoвий рельефа (при пoдъёме на 10 м давление пoнижается примернo на 1 мм рт.ст.).